Location: Poughquag
(41.6090°N, 73.6820°W)
Time: 18:14:23
(UTC-04:00)

STRAND 1 - Pass Details

Date: 06 December 2023
Orbit: 765 x 776 km, 98.4° (Epoch: 06 October)

Event Time Altitude Azimuth Distance (km) Brightness Sun altitude
Exits shadow 17:29:13 16° 62° (ENE) 1,934 ? -11.8°
Maximum altitude 17:31:17 20° 92° (E) 1,730 ? -12.2°
Drops below altitude 10° 17:34:55 10° 139° (SE) 2,301 ? -12.8°
Sets 17:37:50 0° 156° (SSE) 3,225 ? -13.3°
